This demonstration page uses our WeatherBlox Daily Observations layout. Learn more.

Left ArrowRight Arrow

41.55636, -103.73856

Hourly Observations for July 24, 2015

Temp ( °F °C ) Dew Point ( °F °C ) Humidity (%) Winds ( mph kmh ) Pressure ( in mb ) Visibility ( mi km ) Precip ( " mm )
12:53 am 00:53 undefined 65 18.3 60 15.6 84 84 NW 3 6 29.85 1011 10 16.0934 0 0
1:53 am 01:53 Clear 61 16.1 58 14.4 90 90 W 6 9 29.87 1012 10 16.0934 0 0
2:53 am 02:53 Clear 62 16.7 53 11.7 73 73 N 9 15 29.88 1012 10 16.0934 0 0
3:53 am 03:53 Clear 60 15.6 53 11.7 78 78 WNW 6 9 29.9 1013 10 16.0934 0 0
4:53 am 04:53 Clear 58 14.4 52 11.1 81 81 NNW 6 9 29.91 1013 10 16.0934 0 0
5:53 am 05:53 Sunny 58 14.4 49 9.4 72 72 NNW 5 7 29.92 1013 10 16.0934 0 0
6:53 am 06:53 Sunny 61 16.1 52 11.1 72 72 NW 7 11 29.94 1014 10 16.0934 0 0
7:53 am 07:53 Sunny 67 19.4 54 12.2 63 63 W 7 11 29.96 1015 10 16.0934 0 0
8:53 am 08:53 Sunny 72 22.2 56 13.3 57 57 WSW 3 6 29.98 1015 10 16.0934 0 0
9:53 am 09:53 Sunny 77 25 60 15.6 56 56 Calm 29.98 1015 10 16.0934 0 0
10:53 am 10:53 Sunny 80 26.7 62 16.7 54 54 VRB 3 6 29.98 1015 10 16.0934 0 0
11:53 am 11:53 Sunny 83 28.3 62 16.7 49 49 VRB 6 9 29.96 1015 10 16.0934 0 0
12:53 pm 12:53 Sunny 85 29.4 62 16.7 46 46 E 7 11 29.95 1014 10 16.0934 0 0
1:53 pm 13:53 Sunny 87 30.6 57 13.9 36 36 VRB 3 6 29.93 1014 10 16.0934 0 0
2:53 pm 14:53 Sunny 90 32.2 62 16.7 39 39 E 7 11 29.91 1013 10 16.0934 0 0
3:53 pm 15:53 Sunny 91 32.8 63 17.2 39 39 ESE 14 22 29.89 1012 10 16.0934 0 0
4:53 pm 16:53 Sunny 90 32.2 62 16.7 39 39 ESE 10 17 29.89 1012 10 16.0934 0 0
5:53 pm 17:53 Sunny 87 30.6 66 18.9 50 50 E 8 13 29.88 1012 10 16.0934 0 0
6:53 pm 18:53 Sunny 84 28.9 67 19.4 57 57 E 9 15 29.86 1011 10 16.0934 0 0
7:25 pm 19:25 Sunny with Nearby Thunderstorms 83 28.3 65 18.3 55 55 SE 9 15 29.71 1006 10 16.0934 0 0
7:40 pm 19:40 Mostly Sunny 82 28 63 17 51 51 E 3 6 29.71 1006 10 16.0934 0 0
7:48 pm 19:48 Partly Cloudy with Nearby Thunderstorms 82 28 66 19 58 58 NW 14 22 29.74 1007 10 16.0934 0 0
7:53 pm 19:53 Mostly Cloudy with Nearby Thunderstorms 81 27.2 62 16.7 53 53 NW 14 22 29.88 1012 10 16.0934 0 0
8:03 pm 20:03 Partly Cloudy 84 29 57 14 40 40 N 9 15 29.74 1007 10 16.0934 0 0
8:53 pm 20:53 Clear 77 25 61 16.1 58 58 E 7 11 29.85 1011 10 16.0934 0 0
9:53 pm 21:53 Clear 74 23.3 61 16.1 64 64 ESE 9 15 29.86 1011 10 16.0934 0 0
10:53 pm 22:53 Clear 72 22.2 61 16.1 68 68 E 8 13 29.88 1012 10 16.0934 0 0
11:53 pm 23:53 Clear 71 21.7 62 16.7 73 73 E 7 11 29.85 1011 10 16.0934 0 0

Powered by AerisWeather